Bellefontaine, OH

7:18 PM EST on November 18, 2017 (GMT -0500)
Bellefontaine

Weather History for KEDJ - November, 2013

Change the Weather History Date:

Saturday, November 2, 2013

  Actual Average (KDLZ) Record (KDLZ)
Temperature  
Mean Temperature 44 °F -  
Max Temperature 48 °F 62 °F 79 °F (1938)
Min Temperature 41 °F 39 °F 20 °F (1954)
Degree Days  
Heating Degree Days 20    
Moisture  
Dew Point 41 °F    
Average Humidity 88    
Maximum Humidity 100    
Minimum Humidity 66    
Precipitation  
Precipitation 0.01 in - - ()
Sea Level Pressure  
Sea Level Pressure 29.82 in    
Wind  
Wind Speed 9 mph (West)    
Max Wind Speed 15 mph    
Max Gust Speed 21 mph    
Visibility 9 miles    
Events      
Averages and records for this station are not official NWS values.
T = Trace of Precipitation, MM = Missing Value Source: NWS Daily Summary

Daily Weather History Graph

Daily Weather History Graph

Search for Another Location

Airport or City:

Trip Planner

Search our weather history database for the weather conditions in past years. The results will help you decide how hot, cold, wet, or windy it might be!

Date:

Astronomy

Nov. 02, 2013 Rise Set
Actual Time 8:06 AM EDT 6:30 PM EDT
Civil Twilight 7:38 AM EDT 6:59 PM EDT
Nautical Twilight 7:05 AM EDT 7:31 PM EDT
Astronomical Twilight 6:34 AM EDT 8:02 PM EDT
Moon 7:02 AM EDT (11/2) 6:01 PM EDT (11/2)
Length of Visible Light 11h 20m
Length of Day
10h 24m
Waning Crescent, 1% of the Moon is Illuminated
Nov 2
Waning Crescent
Nov 3
New
Nov 10
First Quarter
Nov 17
Full
Nov 25
Last Quarter

Hourly Weather History & Observations

Time (EDT) Temp. Windchill Dew Point Humidity Pressure Visibility Wind Dir Wind Speed Gust Speed Precip Events Conditions
12:10 AM 44.6 °F 42.2 °F 41.0 °F 87% 29.70 in 10.0 mi SW 4.6 mph - 0.00 in   Mostly Cloudy
12:30 AM 46.4 °F 42.4 °F 42.8 °F 87% 29.70 in 10.0 mi WSW 8.1 mph - 0.00 in   Mostly Cloudy
12:50 AM 46.4 °F 40.7 °F 39.2 °F 76% 29.70 in 10.0 mi WSW 12.7 mph - 0.00 in   Overcast
1:10 AM 46.4 °F 41.9 °F 39.2 °F 76% 29.69 in 10.0 mi WSW 9.2 mph - 0.00 in   Overcast
1:30 AM 46.4 °F 41.5 °F 39.2 °F 76% 29.70 in 10.0 mi WSW 10.4 mph - 0.00 in   Overcast
1:50 AM 44.6 °F 39.7 °F 41.0 °F 87% 29.70 in 10.0 mi West 9.2 mph - 0.00 in   Overcast
2:10 AM 44.6 °F 39.2 °F 41.0 °F 87% 29.70 in 10.0 mi West 10.4 mph - 0.00 in   Overcast
2:30 AM 44.6 °F 40.2 °F 41.0 °F 87% 29.70 in 10.0 mi West 8.1 mph - 0.00 in   Mostly Cloudy
2:50 AM 44.6 °F 40.2 °F 42.8 °F 93% 29.70 in 10.0 mi West 8.1 mph - 0.00 in   Overcast
3:10 AM 44.6 °F 40.2 °F 42.8 °F 93% 29.70 in 10.0 mi WSW 8.1 mph - 0.00 in   Overcast
3:30 AM 44.6 °F 38.4 °F 42.8 °F 93% 29.70 in 10.0 mi WSW 12.7 mph - 0.00 in   Overcast
3:50 AM 44.6 °F 39.2 °F 42.8 °F 93% 29.70 in 10.0 mi WSW 10.4 mph - 0.00 in   Overcast
4:10 AM 44.6 °F 38.8 °F 42.8 °F 93% 29.70 in 10.0 mi WSW 11.5 mph - 0.00 in   Overcast
4:30 AM 44.6 °F 38.4 °F 42.8 °F 93% 29.71 in 10.0 mi WSW 12.7 mph - 0.00 in   Overcast
4:50 AM 44.6 °F 39.2 °F 42.8 °F 93% 29.71 in 10.0 mi WSW 10.4 mph - 0.00 in   Overcast
5:10 AM 44.6 °F 40.2 °F 42.8 °F 93% 29.71 in 10.0 mi WSW 8.1 mph - 0.00 in   Overcast
5:30 AM 44.6 °F 38.8 °F 42.8 °F 93% 29.71 in 10.0 mi West 11.5 mph - 0.00 in   Overcast
5:50 AM 44.6 °F 39.7 °F 42.8 °F 93% 29.72 in 10.0 mi West 9.2 mph - 0.00 in   Overcast
6:10 AM 44.6 °F 39.2 °F 42.8 °F 93% 29.72 in 10.0 mi West 10.4 mph - 0.00 in   Overcast
6:30 AM 44.6 °F 40.2 °F 42.8 °F 93% 29.73 in 10.0 mi West 8.1 mph - 0.00 in   Overcast
6:50 AM 44.6 °F 41.4 °F 42.8 °F 93% 29.73 in 10.0 mi West 5.8 mph - 0.00 in   Overcast
7:10 AM 44.6 °F 39.2 °F 42.8 °F 93% 29.74 in 9.0 mi West 10.4 mph - 0.00 in   Overcast
7:30 AM 44.6 °F 39.2 °F 42.8 °F 93% 29.74 in 10.0 mi West 10.4 mph - 0.00 in   Overcast
7:50 AM 44.6 °F 40.2 °F 42.8 °F 93% 29.75 in 10.0 mi West 8.1 mph - 0.00 in   Overcast
8:10 AM 44.6 °F 40.2 °F 42.8 °F 93% 29.75 in 10.0 mi West 8.1 mph - 0.00 in   Overcast
8:30 AM 44.6 °F 40.2 °F 42.8 °F 93% 29.76 in 7.0 mi West 8.1 mph - 0.00 in   Mostly Cloudy
8:50 AM 44.6 °F 40.7 °F 42.8 °F 93% 29.76 in 7.0 mi West 6.9 mph - 0.00 in   Overcast
9:10 AM 44.6 °F 40.2 °F 42.8 °F 93% 29.77 in 6.0 mi West 8.1 mph - 0.00 in   Overcast
9:30 AM 44.6 °F 38.8 °F 42.8 °F 93% 29.78 in 6.0 mi West 11.5 mph - 0.00 in   Mostly Cloudy
9:50 AM 44.6 °F 38.8 °F 42.8 °F 93% 29.78 in 7.0 mi West 11.5 mph - 0.00 in   Scattered Clouds
10:10 AM 44.6 °F 38.4 °F 41.0 °F 87% 29.79 in 8.0 mi West 12.7 mph 16.1 mph 0.00 in   Overcast
10:30 AM 44.6 °F 38.8 °F 39.2 °F 81% 29.79 in 8.0 mi WSW 11.5 mph 18.4 mph 0.00 in   Overcast
10:50 AM 44.6 °F 39.7 °F 41.0 °F 87% 29.80 in 8.0 mi West 9.2 mph - 0.00 in   Overcast
11:10 AM 46.4 °F 40.4 °F 41.0 °F 81% 29.80 in 8.0 mi West 13.8 mph - 0.00 in   Mostly Cloudy
11:30 AM 46.4 °F 41.5 °F 39.2 °F 76% 29.81 in 9.0 mi West 10.4 mph - 0.00 in   Mostly Cloudy
11:50 AM 46.4 °F 41.5 °F 39.2 °F 76% 29.81 in 10.0 mi West 10.4 mph - 0.00 in   Mostly Cloudy
12:10 PM 48.2 °F - 39.2 °F 71% 29.82 in 10.0 mi West 15.0 mph - 0.00 in   Mostly Cloudy
12:30 PM 48.2 °F - 39.2 °F 71% 29.82 in 10.0 mi West 10.4 mph - 0.00 in   Mostly Cloudy
12:50 PM 46.4 °F 41.1 °F 37.4 °F 71% 29.82 in 10.0 mi West 11.5 mph - 0.00 in   Mostly Cloudy
1:10 PM 46.4 °F 41.1 °F 37.4 °F 71% 29.82 in 10.0 mi West 11.5 mph 18.4 mph 0.00 in   Mostly Cloudy
1:30 PM 48.2 °F - 37.4 °F 66% 29.82 in 10.0 mi WNW 8.1 mph - 0.00 in   Mostly Cloudy
1:50 PM 48.2 °F - 37.4 °F 66% 29.82 in 10.0 mi West 10.4 mph - 0.00 in   Mostly Cloudy
2:10 PM 48.2 °F - 37.4 °F 66% 29.82 in 10.0 mi West 9.2 mph - 0.00 in   Mostly Cloudy
2:30 PM 48.2 °F - 37.4 °F 66% 29.83 in 10.0 mi West 11.5 mph 17.3 mph 0.00 in   Mostly Cloudy
2:50 PM 48.2 °F - 37.4 °F 66% 29.83 in 10.0 mi West 12.7 mph - 0.00 in   Overcast
3:10 PM 48.2 °F - 37.4 °F 66% 29.84 in 10.0 mi West 12.7 mph - 0.00 in   Mostly Cloudy
3:30 PM 48.2 °F - 39.2 °F 71% 29.84 in 10.0 mi West 11.5 mph - 0.00 in   Mostly Cloudy
3:50 PM 48.2 °F - 39.2 °F 71% 29.85 in 10.0 mi West 10.4 mph - 0.00 in   Mostly Cloudy
4:10 PM 46.4 °F 42.4 °F 39.2 °F 76% 29.86 in 9.0 mi WNW 8.1 mph 17.3 mph 0.00 in   Overcast
4:30 PM 46.4 °F 41.9 °F 39.2 °F 76% 29.86 in 7.0 mi West 9.2 mph - 0.00 in   Overcast
4:50 PM 46.4 °F 42.4 °F 42.8 °F 87% 29.87 in 10.0 mi WNW 8.1 mph - 0.00 in   Overcast
5:10 PM 44.6 °F 39.7 °F 39.2 °F 81% 29.88 in 5.0 mi West 9.2 mph 20.7 mph 0.00 in   Overcast
5:30 PM 44.6 °F 39.7 °F 42.8 °F 93% 29.89 in 10.0 mi WNW 9.2 mph - 0.00 in   Overcast
5:50 PM 42.8 °F 38.0 °F 41.0 °F 93% 29.91 in 10.0 mi NW 8.1 mph - 0.00 in   Overcast
6:10 PM 42.8 °F 40.1 °F 41.0 °F 93% 29.91 in 8.0 mi NW 4.6 mph - 0.00 in   Overcast
6:30 PM 42.8 °F - 42.8 °F 100% 29.92 in 10.0 mi Calm Calm - 0.00 in   Overcast
6:50 PM 42.8 °F 39.3 °F 42.8 °F 100% 29.93 in 10.0 mi West 5.8 mph - 0.00 in   Overcast
7:10 PM 42.8 °F 40.1 °F 42.8 °F 100% 29.94 in 10.0 mi NW 4.6 mph - 0.00 in   Overcast
7:30 PM 42.8 °F 38.0 °F 42.8 °F 100% 29.95 in 6.0 mi NW 8.1 mph - 0.00 in   Overcast
7:50 PM 42.8 °F 41.1 °F 41.0 °F 93% 29.96 in 10.0 mi WNW 3.5 mph - 0.01 in   Overcast
8:10 PM 42.8 °F 40.1 °F 42.8 °F 100% 29.97 in 10.0 mi West 4.6 mph - 0.00 in   Overcast
8:30 PM 42.8 °F 40.1 °F 42.8 °F 100% 29.98 in 10.0 mi West 4.6 mph - 0.00 in   Overcast
8:50 PM 41.0 °F 38.0 °F 41.0 °F 100% 29.98 in 10.0 mi West 4.6 mph - 0.00 in   Mostly Cloudy
9:10 PM 41.0 °F 37.1 °F 41.0 °F 100% 29.99 in 10.0 mi West 5.8 mph - 0.00 in   Mostly Cloudy
9:30 PM 42.8 °F 39.3 °F 42.8 °F 100% 30.00 in 10.0 mi West 5.8 mph - 0.00 in   Overcast
9:50 PM 42.8 °F 37.0 °F 42.8 °F 100% 30.00 in 10.0 mi NW 10.4 mph 16.1 mph 0.00 in   Overcast
10:10 PM 42.8 °F 39.3 °F 42.8 °F 100% 30.01 in 10.0 mi NNW 5.8 mph - 0.00 in   Overcast
10:30 PM 41.0 °F 38.0 °F 41.0 °F 100% 30.02 in 10.0 mi NW 4.6 mph - 0.00 in   Mostly Cloudy
10:50 PM 41.0 °F - 41.0 °F 100% 30.03 in 10.0 mi Calm Calm - 0.00 in   Overcast
11:10 PM 41.0 °F 39.0 °F 41.0 °F 100% 30.04 in 10.0 mi WNW 3.5 mph - 0.00 in   Overcast
11:30 PM 41.0 °F 39.0 °F 41.0 °F 100% 30.04 in 10.0 mi WNW 3.5 mph - 0.00 in   Overcast
11:50 PM 41.0 °F 39.0 °F 39.2 °F 93% 30.05 in 10.0 mi NNW 3.5 mph - 0.00 in   Overcast